Regional Weather Roundup
Issued by NWS Green Bay, WI

Home | Current Version | Previous Version | Graphics & Text | Print | Product List | Glossary Off
Versions: 1 2 3 4 5 6 7 8 9 10 11 12 13 14 15 16 17 18 19 20 21 22 23 24 25 26 27 28 29 30 31 32 33 34 35 36 37 38 39 40 41 42 43 44 45 46 47 48 49 50

000
ASUS43 KGRB 281010
RWRGRB

NORTH-CENTRAL AND NORTHEAST WISCONSIN REGIONAL WEATHER ROUNDUP
NATIONAL WEATHER SERVICE GREEN BAY WI
400 AM CST WED JAN 28 2015

WIZ005-009-010>012-018-019-281100-
NORTH CENTRAL WISCONSIN

CITY           SKY/WX    TMP DP  RH WIND       PRES   REMARKS
IRONWOOD       CLOUDY    25  21  86 S6        30.07F
MANITOWISH WTR CLOUDY    22  21  96 S6        30.09F
ARBOR VITAE    CLOUDY    23  21  93 S5        30.10S FOG
EAGLE RIVER    CLOUDY    22  19  89 S5        30.11S FOG
LAND O LAKES   CLOUDY    23  21  93 S5        30.11F
RHINELANDER    CLOUDY    22  20  92 S8        30.12S FOG
PHILLIPS       CLOUDY    23  21  92 S12       30.10S
ANTIGO         CLOUDY    21  18  90 S6        30.15S
TOMAHAWK       CLOUDY    22  21  94 CALM      30.12F FOG
MERRILL        CLOUDY    23  21  91 S5        30.14F
$$

WIZ013-073-281100-
NORTHEAST WISCONSIN

CITY           SKY/WX    TMP DP  RH WIND       PRES   REMARKS
IRON MOUNTAIN  CLOUDY    21  16  81 S7        30.15F
MARINETTE      CLOUDY    19  16  86 CALM      30.23F
OCONTO         CLOUDY    15  14  95 CALM      30.23F
$$

WIZ017-030-035>037-045-281100-
CENTRAL WISCONSIN

CITY           SKY/WX    TMP DP  RH WIND       PRES   REMARKS
MEDFORD        CLOUDY    23  21  93 S12       30.11F FOG
WAUSAU         CLOUDY    23  19  85 SE8       30.14F
MOSINEE        CLOUDY    23  21  93 SE6       30.16F
MARSHFIELD     CLOUDY    25  22  88 S12       30.14F FOG
WISC RAPIDS    CLOUDY    24  20  84 SE6       30.18F
STEVENS POINT  CLOUDY    23  18  82 S5        30.18S
WAUPACA        CLOUDY    26  19  77 SE3       30.21S
SHAWANO        CLOUDY    25  18  75 S3        30.21F
CLINTONVILLE   CLOUDY    23  18  80 S6        30.20F
$$

WIZ038-039-048-051-281100-
FOX VALLEY

CITY           SKY/WX    TMP DP  RH WIND       PRES   REMARKS
NWS GREEN BAY  MOCLDY    17  15  92 SE3       30.23F
APPLETON       MOCLDY    23  18  80 S8        30.22S
OSHKOSH        MOCLDY    22  17  81 S6        30.22F
FOND DU LAC    CLOUDY    22  16  78 S5        30.22F
$$

WIZ022-050-052-281100-
EAST CENTRAL WISCONSIN

CITY           SKY/WX    TMP DP  RH WIND       PRES   REMARKS
STURGEON BAY   MOCLDY    18  14  86 S5        30.25F
MANITOWOC      PTCLDY    16  12  84 CALM      30.25F
SHEBOYGAN      MOCLDY    19  15  84 SE3       30.24F
$$

LMZ563-521-522-541>543-281100-
LAKESHORE

STATION/POSITION TIME  TEMP    WIND        PRES    VSBY  WAVE
                       AIR SEA DIR/SP/G                  HT/PER
                 (UTC) (F)     (DEG/KT/KT) (MB)    (MI)  (FT/S)
SHEBOYGAN LKSHOR 1000   27     150/  5/  6 1025.4F
KEWAUNEE LKSHORE 1000   20     260/  2/  4 1023.6R
NORTHPORT PIER   1000   18     220/  2/  4 1024.4R
SISTER BAY LKSHO 1000   19        CALM       N/A
CHAMBERS ISLAND  1000   17     160/  2/  5 1024.4R
MENOMINEE LKSHOR 1000   16     190/  5     1024.6S
$$



USA.gov is the U.S. government's official web portal to all federal, state and local government web resources and services.